Location: Hilton Head Island
(32.2163°N, 80.7526°W)
Time: 03:21:29
(UTC-05:00)

Tiros 1 - Visible Passes

Search period start: 17 February 2026 00:00
Search period end: 27 February 2026 00:00
Orbit: 618 x 649 km, 48.4° (Epoch: 15 February)

Date Brightness Start Highest point End Pass type
(mag) Time Alt. Az. Time Alt. Az. Time Alt. Az.
18 Feb 10.0 06:30:37 10° S 06:33:37 17° SE 06:36:36 10° E visible
20 Feb 10.0 05:33:04 10° SSE 05:35:10 13° SE 05:37:14 10° E visible
21 Feb 8.9 05:52:23 10° SSW 05:56:30 31° SE 06:00:34 10° ENE visible
22 Feb 7.3 06:13:20 10° SW 06:17:59 76° SE 06:22:35 10° NE visible
23 Feb 9.1 04:55:48 17° S 04:58:00 24° SE 05:01:44 10° ENE visible
24 Feb 7.6 05:17:27 32° SSW 05:19:26 58° SE 05:23:59 10° ENE visible
25 Feb 9.9 04:01:27 15° E 04:01:27 15° E 04:02:44 10° E visible
25 Feb 7.1 05:38:51 30° WSW 05:41:03 62° NW 05:45:38 10° NE visible
26 Feb 8.9 04:22:41 30° E 04:22:41 30° E 04:25:19 10° ENE visible
26 Feb 8.1 06:00:05 17° W 06:02:52 31° NNW 06:06:59 10° NNE visible
